Location: Lugano
(46.0000°N, 8.9670°E)
Time: 19:01:59
(UTC+02:00)

NOAA 15 - Visible Passes

Search period start: 18 April 2026 00:00
Search period end: 28 April 2026 00:00
Orbit: 794 x 809 km, 98.5° (Epoch: 18 April)

Date Brightness Start Highest point End Pass type
(mag) Time Alt. Az. Time Alt. Az. Time Alt. Az.
18 Apr 7.6 21:25:51 10° WSW 21:27:50 12° W 21:29:51 10° WNW visible
19 Apr 7.3 20:57:21 10° SW 21:01:15 21° W 21:05:11 10° NW visible
22 Apr 7.5 21:20:00 10° WSW 21:22:31 13° W 21:25:04 10° WNW visible
23 Apr 7.2 20:51:50 10° SW 20:55:58 23° W 21:00:05 10° NW visible
26 Apr 7.4 21:14:16 10° WSW 21:17:12 15° W 21:20:09 10° NW visible
